Showing default

MSU ALTAIR, 61779

Orbit data source: Space-Track

MSU ALTAIR, 61779 is a payload satellite owned by MGU (CIS) in SSO that was launched on Mon, 04 Nov 2024 UTC via a SOYUZ-2-1B launch vehicle from the Vostochny Cosmodrome (VOSTO). Payload-class satellites include a variety of spacecraft equipped with specific instruments for various scientific and technological missions. These include communications satellites like Starlink; space stations such as the ISS; scientific satellites like the Hubble; Earth observation satellites from companies like Planet Labs, Umbra, and HawkEye 360; GPS; miniature CubeSats for education and research; and military/defense satellites.

Loading next visibility...
Identifier
61779, 2024-199AW
Orbit
SSO
Country
Flag of CISCIS
Related business
Manufacturer
NILAKT DOSAAF
Mission
Operational Amateur Science
Bus & Motor
CUBESAT 6U, Unknown motor
Mass
10 kg wet, 10 kg dry
Launch date (UTC)
2024-11-04 (2 years ago)
Launch vehicle
SOYUZ-2-1B
Launch site
Vostochny Cosmodrome (VOSTO)
Object type
Payload
Rocket body
Debris
Shape & HBR
Box, 0.1 m
Radar Cross Section
0.080 m², Medium (>0.1 m² and < 1m²)

Expand to show TLE details & history
Last TLE update: 6 hours ago

TLE from 6 hours ago
0 MSU ALTAIR
1 61779U 24199AW  26128.19344317  .00007469  00000-0  21272-3 0  9999
2 61779  97.3080 357.8202 0014867  90.7072 269.5876 15.36281806130970
Epoch: 2026-05-08T04:38Z
TLE epoch observation values (Epoch: 2026-05-08T04:38:33.489Z)
Latitude
-0.00003°
Longitude
62.15192°
Altitude
460.319 km
Speed
7.636 km/s
True Right ascension
23h 51m 16s
True Declination
0° 00' 00"
Sunlit
Object was in daylight at epoch
Visualization orbit readout
Latitude
Unknown
Longitude
Unknown
Altitude
Unknown
Speed
Unknown
Apparent Right ascension
Unknown
Apparent Declination
Unknown
Sunlit
N/A
Visualization observer readout
Local Sidereal Time
18:49:28
Azimuth
Unknown
Elevation
Unknown
Doppler factor
Unknown
Orbital elements
Apogee altitude
464.213 km
Perigee altitude
443.898 km
Semi-major axis
6,832.193 km
Eccentricity
0.00149
Inclination
97.308°
RAAN
357.8202°
Arg. of periapsis
90.7072°
True anomaly
269.41724°
Mean anomaly
269.5876°
Eccentric anomaly
269.50242°
Mean motion
3.84329 °/min
Orbital period
93.67 mins
BSTAR
0.00021272
Loading maneuver chart data...
Computing Atmospheric mass density...
Loading historical data...
Loading historical data...
Loading historical data...
Loading historical data...
Loading historical data...
Loading historical data...
Loading historical data...

Documentation

Showing up to 5 results
|